FENGYUN 1C DEB

Satellite information

Favourite Embed

Satellite Type and Status

DEBRISIN ORBIT

Key statistics

Satellite FENGYUN 1C DEB at a glance.

Uptime

9615

Days in orbit

Revolutions

≈ 13.7

Per day

Orbit

SSO

Sun Synchronous Orbit

Inclination

99.7

Latest

Satellite identification and parameters

Extended collection of information and parameters for FENGYUN 1C DEB.

Object identification

Identified? True

Debris? True

Object name: FENGYUN 1C DEB

International designator: 1999-025AEE

Object number (NORAD): 30415

Object ID (CCSDS): 30415

Country: PEOPLES REPUBLIC OF CHINA (PRC)

Current information (Y/N): Y

RCS size: SMALL

Orbital parameters

Period: 105.216 minutes

Inclination: 99.6528 deg

SMA: 7382.685 km

Apoapsis: 1181.144 km

Periapsis: 827.956 km

RAAN: 307.2646 deg

Eccentricy: 0.02392002

Argument of periapsis: 165.2799 deg

Mean anomaly: 226.068 deg

Mean motion: 13.68614776 rev/day

Mean motion (dot): 0.00002373 rev/day2

B* drag term: 0.0023062098 1/REarth

Two-line elements (TLE)

Creation date: Sept. 4, 2025, 10:13 a.m.

Reference frame: TEME

Reference center: EARTH

Epoch: Sept. 4, 2025, 2:56 a.m. UTC

TLE line 0: 0 FENGYUN 1C DEB

TLE line 1: 1 30415U 99025AEE 25247.12228939 .00002373 00000-0 23062-2 0 9994

TLE line 2: 2 30415 99.6528 307.2646 0239200 165.2799 226.0680 13.68614776925152

Live tracking on map

Real-time ground track for satellite FENGYUN 1C DEB.

In-orbit conjunctions

A list of the most updated potential collisions computed for object FENGYUN 1C DEB.

Target Orbit TCA Probability of collision Miss distance Type
COSMOS 1275 DEB LEO 2024-11-09 13:52:18 0.0002729628 687.0 (m) DEBRIS
COSMOS 800 LEO 2024-09-15 10:21:49 0.000294503 339.0 (m) PAYLOAD
FENGYUN 1C DEB SSO 2024-07-25 23:24:52 0.0001003201 355.0 (m) DEBRIS

Associated space launch

Chinese polar orbiting meteorological satellite

FENGYUN 1C DEB was lifted into orbit during the mission ‘Long March 4B | Feng Yun 1C’, on board a Long March 4B space rocket.

The launch took place on May 10, 1999, 1:33 a.m. from Launch Complex 7.

For more information about the launch, click the button.

Launch to space Long March 4B | Feng Yun 1C
Long March 4B | Feng Yun 1C

Agency: N/A

Status: Launch Successful

Launch date: May 10, 1999, 1:33 a.m. UTC

Rocket: Long March 4B

Launch pad: Launch Complex 7

Location: Taiyuan Satellite Launch Center, People's Republic of China

...

Latest news about this satellite

There are no fresh news available about this satellite. Check back as we update our databases every day.


Newsletter sign-up

Weekly statistics, charts and insights to help you stay on top of the space industry.